Location: Unspecified
(52.4806°N, 0.0000°E)
Time: 11:40:54
(UTC+00:00)

Transit 4A - Visible Passes

Search period start: 04 April 2026 00:00
Search period end: 14 April 2026 00:00
Orbit: 863 x 978 km, 66.8° (Epoch: 29 March)

Date Brightness Start Highest point End Pass type
(mag) Time Alt. Az. Time Alt. Az. Time Alt. Az.
4 Apr 7.8 01:45:42 10° NW 01:52:05 83° SW 01:53:15 62° SSE visible
4 Apr 9.2 03:33:05 10° WNW 03:36:38 20° W 03:36:38 20° W visible
4 Apr 10.0 20:32:36 10° WNW 20:37:38 25° NNW 20:42:48 10° NE visible
4 Apr 10.0 22:21:11 10° NW 22:26:05 23° N 22:31:04 10° ENE visible
5 Apr 9.0 00:08:05 10° NW 00:14:05 42° NE 00:17:21 25° E visible
5 Apr 7.9 01:54:30 10° NW 02:00:46 64° WSW 02:00:46 64° WSW visible
5 Apr 9.7 03:42:42 10° WNW 03:44:10 13° W 03:44:10 13° W visible
5 Apr 10.1 20:41:56 10° WNW 20:46:48 23° NNW 20:51:47 10° NE visible
5 Apr 9.9 22:30:11 10° NW 22:35:17 25° NNE 22:40:26 10° ENE visible
6 Apr 8.6 00:16:51 10° NW 00:23:03 52° NE 00:25:07 38° E visible
6 Apr 8.4 02:03:23 10° NW 02:08:33 45° W 02:08:33 45° W visible
6 Apr 10.1 20:51:14 10° NW 20:56:01 22° N 21:00:53 10° NE visible
6 Apr 9.7 22:39:06 10° NW 22:44:26 28° NNE 22:49:37 11° ENE visible
7 Apr 8.2 00:25:37 10° NW 00:31:56 65° NE 00:33:03 56° E visible
7 Apr 8.9 02:12:20 10° NW 02:16:29 31° W 02:16:29 31° W visible
7 Apr 9.7 19:11:31 10° W 19:16:56 31° NNW 19:22:30 10° NE visible
7 Apr 10.1 21:00:29 10° NW 21:05:14 22° N 21:10:04 10° NE visible
7 Apr 9.5 22:47:57 10° NW 22:53:32 31° NNE 22:57:39 16° E visible
8 Apr 7.9 00:34:22 10° NW 00:40:47 82° NE 00:41:06 79° E visible
8 Apr 9.3 02:21:24 10° NW 02:24:32 22° W 02:24:32 22° W visible
8 Apr 9.9 19:20:49 10° W 19:26:02 28° NNW 19:31:23 10° NE visible
8 Apr 10.0 21:09:38 10° NW 21:14:27 22° N 21:19:20 10° NE visible
8 Apr 9.2 22:56:46 10° NW 23:02:36 37° NNE 23:05:47 23° E visible
9 Apr 7.9 00:43:10 10° NW 00:49:13 76° W 00:49:13 76° W visible
9 Apr 9.7 02:30:42 10° WNW 02:32:39 16° WNW 02:32:39 16° WNW visible
9 Apr 10.0 19:30:10 10° WNW 19:35:12 25° NNW 19:40:19 10° NE visible
9 Apr 9.9 21:18:42 10° NW 21:23:39 23° NNE 21:28:40 10° ENE visible
9 Apr 8.8 23:05:33 10° NW 23:11:36 44° NE 23:13:57 32° E visible
10 Apr 8.2 00:51:59 10° NW 00:57:24 55° W 00:57:24 55° W visible
10 Apr 10.0 02:40:30 10° WNW 02:40:51 11° WNW 02:40:51 11° WNW visible
10 Apr 10.0 19:39:30 10° WNW 19:44:22 23° N 19:49:20 10° NE visible
10 Apr 9.8 21:27:40 10° NW 21:32:50 25° NNE 21:38:03 10° ENE visible
10 Apr 8.5 23:14:18 10° NW 23:20:33 55° NE 23:22:11 43° E visible
11 Apr 8.6 01:00:52 10° NW 01:05:38 40° W 01:05:38 40° W visible
11 Apr 10.0 19:48:48 10° NW 19:53:35 22° N 19:58:26 10° NE visible
11 Apr 9.6 21:36:34 10° NW 21:41:58 28° NNE 21:47:01 12° ENE visible
11 Apr 8.1 23:23:04 10° NW 23:29:25 69° NE 23:30:28 59° E visible
12 Apr 9.1 01:09:50 10° NW 01:13:55 30° W 01:13:55 30° W visible
12 Apr 10.0 19:58:01 10° NW 20:02:48 22° N 20:07:39 10° NE visible
12 Apr 9.3 21:45:25 10° NW 21:51:05 33° NNE 21:55:20 16° E visible
12 Apr 7.8 23:31:50 10° NW 23:38:15 87° NE 23:38:47 76° SE visible
13 Apr 9.5 01:18:57 10° WNW 01:22:14 22° W 01:22:14 22° W visible
13 Apr 9.9 20:07:09 10° NW 20:12:01 23° N 20:16:56 10° ENE visible
13 Apr 9.0 21:54:12 10° NW 22:00:08 38° NNE 22:03:40 22° E visible
13 Apr 7.9 23:40:37 10° NW 23:46:59 73° SW 23:47:07 73° SW visible
